User: anonymous   Login
Location: Unspecified
(0.0000°N, 0.0000°E)
Time: 11:45:33
(UTC+01:00)
Language:

ARIANE 44L R/B - Orbit

View from above orbital plane
View from above orbital plane
View from above satellite
View from above satellite

Ground track
Ground track

The orbit data is extracted from the following two-line orbital elements,

1 26901U 01039B   14354.18242204  .00003345  00000-0  14189-2 0  1791
2 26901 007.1734 236.6191 6956372 148.2282 007.6485 02.67756873118602
Epoch (UTC): 20 December 2014 04:22:41
Eccentricity: 0.6956372
inclination: 7.1734°
perigee height: 289 km
apogee height: 30767 km
right ascension of ascending node: 236.6191°
argument of perigee: 148.2282°
revolutions per day: 2.67756873
mean anomaly at epoch: 7.6485°
orbit number at epoch: 11860

The dashed part of the orbit path shows where the satellite is in the earth's shadow,  

DLR